GFSNE_925_spd_273.txt.gz
Wind_Speed
20 21 21 18 18 19 18 24 15 6 9 17 15 32 31 25 21 22 26 27 27 29 30 30 29 27 27 26 26 26 25 24 23 23 23 24 24 26
18 17 22 21 21 20 16 14 15 14 5 24 22 21 28 23 22 23 23 25 27 27 30 31 29 28 27 27 27 27 26 25 24 24 24 25 26 27
17 18 19 19 21 19 19 17 13 14 9 13 20 19 23 24 24 26 24 23 22 28 28 29 30 30 29 27 26 25 25 24 24 24 25 26 24 25
17 17 17 18 19 16 19 17 12 12 5 7 4 25 22 19 16 22 19 22 21 25 25 27 29 29 28 27 26 25 25 25 25 25 24 23 23 23
12 16 16 15 14 15 18 18 19 12 6 8 6 9 11 16 19 17 20 20 20 18 23 22 24 25 27 27 26 26 24 23 22 22 21 20 18 16
7 8 8 10 10 11 15 16 16 2 10 7 8 7 12 14 19 20 19 21 17 14 20 18 19 21 22 24 24 23 21 21 20 18 16 15 15 15
5 5 10 9 6 6 6 16 15 11 4 11 13 14 15 14 16 19 20 16 16 18 13 13 12 13 16 19 19 18 18 16 15 14 13 13 14 16
9 11 12 13 9 6 5 9 14 11 14 13 13 14 12 15 14 16 13 10 8 15 15 12 9 11 10 9 15 12 12 13 12 11 10 10 9 8
11 11 10 13 12 9 7 4 11 16 16 18 17 14 13 15 15 14 14 16 12 10 17 15 13 13 13 13 13 11 10 9 9 9 8 7 6 5
14 13 13 14 14 13 11 9 7 8 7 10 8 10 10 12 15 14 14 15 13 15 16 11 14 13 14 12 11 12 11 9 8 8 7 7 8 7
12 14 13 13 15 16 12 11 11 10 9 13 9 4 3 3 10 9 9 11 10 14 14 12 15 13 15 17 15 10 9 10 11 10 10 10 9 7
14 14 16 13 15 18 13 11 12 13 13 8 7 11 11 8 11 10 9 15 16 16 17 12 14 14 10 17 17 13 8 7 9 10 9 9 9 9
15 19 19 20 18 18 15 10 11 10 11 11 11 11 10 11 10 14 11 8 11 13 10 10 10 14 11 6 14 12 11 11 5 2 3 4 5 7
13 12 22 21 22 19 16 14 14 11 10 11 13 13 15 13 14 14 11 9 1 3 6 5 7 10 10 13 12 10 11 8 5 8 5 2 3 5
11 10 12 20 19 19 18 15 13 10 12 13 14 13 13 11 9 13 8 5 3 2 3 4 6 7 9 12 10 9 14 10 9 9 8 7 7 4
12 7 12 14 14 14 17 17 13 13 14 14 14 13 13 11 11 10 11 10 11 9 5 6 6 7 10 12 11 10 9 10 13 14 13 9 6 7
16 15 15 15 15 15 17 14 14 14 13 12 13 9 11 13 10 14 13 12 11 11 11 9 10 11 11 7 12 12 13 14 15 14 11 12 9 9
18 21 18 16 19 18 17 16 16 15 13 12 9 9 10 12 13 12 12 14 14 14 14 13 13 12 11 13 15 11 14 15 13 12 12 14 13 12
23 21 19 17 18 17 17 16 16 15 13 13 10 10 9 9 11 13 13 14 13 14 14 15 17 16 12 9 13 19 9 13 13 14 13 17 16 19
23 25 20 18 17 17 18 16 14 13 14 13 12 12 11 11 13 18 18 17 15 13 14 14 15 16 15 13 13 19 25 18 19 17 16 16 10 7
24 23 24 22 19 15 15 15 14 15 15 16 16 18 19 22 20 19 17 15 14 14 16 16 18 17 15 16 14 7 15 25 14 9 13 17 18 14
15 17 11 6 9 13 17 17 16 16 17 19 18 18 17 17 16 16 17 16 17 17 16 15 11 13 16 16 16 14 14 18 22 22 14 9 7 13
12 10 7 8 8 4 7 5 9 11 14 15 17 18 16 16 16 15 16 17 17 16 16 17 16 14 16 17 18 16 15 14 14 13 20 22 18 12

GFSNE_925_spd_276.txt.gz
Wind_Speed
21 22 19 22 17 21 20 15 12 5 8 18 13 33 24 26 26 31 31 29 28 25 27 29 30 29 28 26 25 25 26 25 24 23 22 21 21 21
22 18 18 22 24 21 20 22 20 18 5 22 28 23 32 34 31 28 34 33 31 28 27 29 30 30 29 29 28 27 27 26 26 24 23 22 22 22
16 20 24 22 24 22 24 20 16 27 15 18 24 14 28 35 28 29 31 30 29 29 28 29 32 33 33 31 29 28 27 25 24 24 23 22 22 23
18 19 24 21 24 23 19 20 19 17 22 17 21 19 17 25 29 26 27 24 29 28 29 32 32 33 34 32 29 27 26 24 23 23 23 23 23 21
16 17 19 16 18 17 15 8 4 10 10 16 9 14 25 23 25 21 27 25 26 30 28 27 30 31 31 30 28 26 26 26 25 23 22 22 21 19
15 15 13 13 10 8 4 8 6 4 22 5 14 22 23 27 27 23 24 27 24 9 17 29 25 27 27 26 26 26 26 25 23 23 22 20 18 16
4 1 4 10 14 10 10 6 10 2 12 8 6 13 20 15 20 23 22 22 23 17 11 22 24 25 25 25 25 25 24 23 22 20 18 15 14 13
1 1 5 6 10 12 12 9 8 5 5 9 10 12 10 10 17 19 22 17 8 18 18 14 15 16 16 17 21 22 20 19 16 14 13 12 11 11
8 5 3 6 9 11 11 8 9 6 8 10 9 15 16 10 11 14 17 17 15 10 22 20 17 15 14 18 14 15 13 13 12 12 11 10 9 8
14 12 10 9 9 10 10 12 13 12 9 7 7 9 13 15 14 16 13 10 13 12 15 15 19 15 16 15 15 13 11 11 11 11 10 9 9 9
17 18 16 14 14 12 10 11 12 12 10 9 11 12 7 6 13 12 13 13 9 16 21 16 17 13 20 20 18 14 11 10 10 11 12 12 11 10
18 19 20 18 16 17 17 14 15 15 14 11 8 10 13 10 9 12 11 19 16 13 18 19 15 18 7 14 19 19 17 12 10 11 12 12 12 11
22 20 22 22 20 16 19 14 12 11 11 13 13 11 10 12 15 17 14 9 9 14 10 26 19 19 13 9 19 19 17 14 10 6 7 10 10 11
10 21 24 23 25 22 18 19 12 12 11 13 14 15 17 16 15 16 17 10 4 8 11 14 9 10 10 10 10 22 20 16 11 10 5 3 5 4
13 2 17 24 25 22 21 20 17 14 14 16 16 18 19 21 21 19 16 11 5 4 6 8 7 5 5 1 2 14 26 22 18 17 11 6 9 8
17 8 7 19 22 20 20 20 18 16 16 18 18 16 14 11 21 22 16 12 7 8 9 10 8 7 6 6 6 5 19 13 19 16 14 11 10 11
16 11 16 16 17 16 15 18 20 20 20 21 16 12 8 13 20 20 17 17 15 15 15 9 9 10 10 5 10 12 14 17 22 21 18 18 15 13
21 18 18 20 20 19 18 19 20 18 18 18 17 14 12 7 14 14 17 13 17 12 10 17 11 8 8 11 10 10 12 15 18 23 23 17 20 16
18 20 20 16 17 17 20 21 19 18 18 14 14 11 10 10 11 11 13 12 12 15 17 14 20 16 7 5 12 20 17 8 17 23 24 24 16 21
17 15 17 22 17 19 15 14 12 14 18 16 12 11 9 9 8 9 7 11 13 13 12 13 19 22 16 12 9 17 18 20 13 18 21 16 19 17
18 16 15 14 11 15 18 23 18 15 16 14 14 15 15 13 13 13 15 18 21 20 17 17 17 17 12 14 11 12 17 24 22 20 19 23 20 15
13 16 10 7 8 4 16 16 14 13 15 17 18 21 20 20 20 21 23 21 24 17 15 13 18 22 21 16 14 17 19 20 26 23 15 13 10 10
18 16 17 13 10 7 6 7 9 7 8 1 12 15 23 25 25 20 16 16 16 16 20 18 14 17 23 22 19 18 13 24 26 29 28 23 18 12

GFSNE_925_spd_279.txt.gz
Wind_Speed
21 21 21 21 21 26 22 23 15 4 7 17 14 36 35 33 35 36 38 39 36 33 31 30 30 31 31 29 28 27 25 23 21 21 22 22 21 19
19 20 21 23 25 24 24 24 22 15 4 19 26 19 41 32 29 35 36 35 33 34 33 30 29 30 31 31 30 29 27 25 25 24 23 23 21 21
18 18 20 22 22 23 27 24 24 25 7 3 17 25 26 37 32 27 34 36 32 34 34 32 30 31 32 33 32 30 29 27 26 24 24 23 22 22
16 16 21 23 23 26 24 25 22 18 12 9 15 22 30 31 38 31 31 32 36 37 34 33 32 31 33 34 33 32 30 28 26 25 22 22 22 22
14 14 16 17 18 20 20 18 17 20 15 14 9 17 23 28 28 30 30 33 36 34 31 33 33 34 33 34 35 34 31 29 27 26 24 23 23 22
11 11 12 14 13 11 17 18 20 20 21 22 12 17 18 29 22 24 28 28 27 26 30 33 34 34 35 35 33 32 30 29 28 26 25 24 22 21
6 3 2 2 9 13 20 19 17 18 17 12 1 9 10 11 24 19 26 29 29 26 20 22 32 35 34 34 33 31 30 28 27 26 24 21 20 18
5 3 3 5 8 12 15 14 15 21 16 10 3 0 1 8 13 19 24 23 9 24 25 26 19 27 31 31 31 31 29 27 25 23 21 19 17 16
7 6 6 8 12 16 18 18 15 14 13 12 11 8 6 10 11 18 21 21 23 18 19 25 18 19 24 25 23 24 24 22 21 18 17 16 15 13
10 8 8 9 12 15 15 15 15 13 15 11 9 10 9 11 16 17 16 14 15 15 16 15 19 21 15 17 16 14 15 14 14 14 14 14 13 12
16 15 13 11 11 12 13 13 13 14 15 14 10 8 9 12 12 16 17 16 11 16 17 13 9 17 16 17 18 17 15 14 13 13 13 13 13 13
19 20 20 19 15 15 13 13 13 14 14 13 12 12 11 12 11 9 15 22 16 10 22 15 16 14 6 15 21 21 19 17 15 13 12 14 15 15
23 22 23 23 19 18 19 17 14 9 12 15 13 11 10 12 15 15 13 18 22 18 8 22 20 23 8 7 23 25 24 21 18 15 13 13 15 15
14 21 25 24 25 22 19 21 16 14 13 13 13 15 17 20 20 18 19 16 14 13 15 17 15 26 20 9 8 22 25 23 19 17 13 8 10 12
19 12 11 25 24 26 24 20 20 17 14 14 15 17 18 16 16 14 16 16 12 10 9 12 17 16 17 15 10 15 21 26 23 19 15 9 8 11
26 21 12 13 22 24 25 22 21 20 19 18 18 18 18 19 24 21 20 20 17 13 12 9 8 9 8 9 11 14 25 18 27 22 18 12 11 10
21 20 13 14 17 21 21 20 21 20 20 19 17 16 15 9 19 23 30 23 13 15 15 14 12 10 9 7 7 11 19 20 24 27 25 18 15 14
23 20 17 20 22 22 21 21 21 23 23 22 20 17 14 11 17 25 28 25 19 15 17 15 12 8 9 11 10 13 14 23 28 27 28 22 18 17
19 23 21 23 22 21 22 23 24 22 20 18 16 12 10 7 10 15 24 25 24 18 14 20 18 13 4 4 7 17 16 12 21 30 29 26 25 26
22 19 21 19 19 19 19 15 17 21 25 24 20 15 12 12 11 13 16 18 16 14 10 12 24 23 14 9 7 12 18 19 14 25 31 27 23 25
21 18 14 16 19 22 20 19 18 16 10 18 18 16 15 14 13 13 14 15 15 15 14 17 18 15 18 15 9 7 8 17 21 19 25 29 21 20
15 17 18 17 17 16 15 15 14 12 17 21 14 14 19 18 17 19 19 18 18 19 22 22 22 18 24 23 20 17 16 15 18 22 21 26 20 14
11 10 12 12 12 12 15 16 17 16 19 13 9 10 12 16 16 20 25 22 20 22 25 24 18 16 21 23 22 20 16 14 20 26 24 19 16 14

GFSNE_925_spd_285.txt.gz
Wind_Speed
19 19 23 25 24 23 24 23 14 3 4 11 16 19 32 35 34 34 35 34 32 32 33 35 34 34 33 32 31 29 29 28 27 26 24 22 19 17
26 25 24 25 25 27 28 27 25 17 5 9 19 20 21 31 33 33 34 33 31 31 31 31 31 31 33 34 34 32 31 29 27 26 25 23 22 21
24 23 23 23 25 26 27 27 27 27 15 17 16 18 21 23 29 32 33 33 34 32 31 32 31 31 33 32 33 33 32 31 29 27 27 25 24 23
21 19 23 24 27 26 25 25 27 28 24 19 21 19 22 24 25 28 33 34 34 33 32 31 31 32 34 35 33 33 33 32 31 29 28 27 26 26
17 19 22 22 22 26 27 30 28 28 29 21 18 16 15 23 22 26 27 30 33 32 31 32 33 33 34 36 37 34 33 32 31 31 30 30 29 28
17 18 19 19 22 25 28 28 27 24 25 24 18 18 16 17 19 24 25 29 33 34 33 31 32 35 36 38 37 37 35 33 33 33 33 32 31 29
15 16 17 18 18 19 20 22 22 24 21 19 14 12 17 14 19 19 22 25 27 30 33 33 31 30 31 32 36 37 37 36 34 33 33 33 33 31
15 15 15 16 15 14 13 15 20 24 22 18 14 12 16 20 22 22 20 16 10 27 33 33 30 29 29 27 26 32 37 39 37 35 34 33 32 31
16 14 13 12 10 9 10 11 13 17 17 20 19 18 16 23 19 16 18 19 17 18 25 25 28 28 26 25 26 26 26 31 33 36 34 32 30 29
18 16 13 12 10 7 7 9 12 14 14 13 14 17 13 8 9 13 13 14 17 17 19 16 20 25 25 27 26 24 23 25 25 25 27 28 27 27
18 19 16 14 11 9 10 9 9 10 10 14 14 14 15 11 10 10 12 11 5 9 18 14 13 18 19 21 21 18 16 16 20 24 24 25 23 21
16 18 18 18 16 14 16 16 18 21 17 18 19 17 12 11 14 13 10 7 7 3 10 14 14 14 5 16 18 21 19 19 16 16 16 14 13 16
16 16 16 20 22 21 21 22 22 18 16 16 15 17 18 16 15 14 12 14 13 18 13 17 18 21 13 5 14 25 24 18 17 18 17 14 15 17
19 15 11 13 20 23 26 26 23 19 14 14 16 16 16 17 17 16 16 17 19 19 16 17 20 22 21 10 8 13 23 23 21 21 19 18 20 20
15 9 11 12 12 14 18 25 24 22 21 20 20 20 19 16 16 15 14 15 18 18 19 16 18 20 22 20 11 14 16 23 26 26 24 25 26 23
14 12 11 14 17 18 21 17 26 26 26 25 22 19 17 16 15 14 15 14 14 15 14 14 14 18 22 23 21 16 20 13 27 29 29 28 26 24
12 12 11 15 16 17 20 21 20 25 26 28 24 21 19 16 16 13 14 15 17 18 18 15 10 8 11 15 19 21 22 24 21 31 32 30 28 25
11 14 15 20 21 19 23 24 21 23 27 29 25 22 21 19 17 15 14 14 19 22 20 18 14 10 8 8 10 11 18 24 22 22 31 32 31 28
19 20 19 19 21 19 21 21 20 20 24 22 22 22 22 22 20 18 16 16 17 20 22 20 18 15 3 3 10 15 17 17 20 22 27 35 31 32
16 18 18 17 17 19 19 22 21 21 17 18 21 22 21 19 15 15 16 16 17 18 19 20 18 21 18 9 7 7 10 19 20 26 26 28 30 24
11 14 16 14 13 13 13 14 14 15 17 19 21 21 20 18 15 14 13 14 14 18 18 20 22 19 17 14 7 11 10 9 18 20 24 22 18 22
10 8 9 9 7 7 8 9 11 12 15 16 16 14 16 20 19 10 6 7 10 13 16 16 18 20 21 22 17 20 17 13 12 17 16 20 14 11
9 10 8 5 6 7 8 8 8 10 14 16 17 19 16 15 11 10 14 15 15 13 12 13 12 12 17 24 22 21 19 15 13 12 18 20 21 23

GFSNE_925_spd_291.txt.gz
Wind_Speed
28 24 25 21 17 15 14 17 12 5 3 9 12 14 17 19 24 25 26 29 33 35 36 37 38 37 34 32 30 28 27 24 24 23 22 21 19 18
24 19 19 17 16 13 13 16 18 17 5 9 13 14 12 15 18 23 26 28 33 34 35 35 35 36 37 36 34 32 30 29 27 25 25 25 24 23
19 18 19 18 17 17 17 17 18 19 19 16 20 20 19 16 15 18 21 25 26 32 36 37 35 35 36 36 37 36 34 32 32 31 29 28 27 25
19 16 17 18 18 17 16 17 19 23 20 18 18 17 20 21 21 19 18 21 24 26 31 37 38 37 36 36 36 37 36 34 33 32 32 31 29 28
17 19 21 17 17 16 17 19 21 22 23 21 19 16 17 15 17 21 18 19 21 24 27 30 37 38 37 36 36 36 36 34 33 32 31 31 31 30
17 17 16 16 16 15 14 15 15 18 21 20 19 18 16 16 18 20 17 19 19 20 23 25 31 36 37 36 36 37 37 36 35 34 33 31 30 30
15 15 15 16 17 15 12 13 14 16 19 19 18 17 18 12 19 20 22 20 22 22 19 22 24 26 30 37 38 39 39 38 36 35 34 34 33 32
15 14 14 15 17 16 16 15 14 17 18 16 15 14 20 22 21 22 22 19 12 19 24 22 22 23 26 28 31 38 38 38 37 37 37 36 36 35
14 13 13 13 14 12 12 13 12 12 14 16 18 17 17 22 21 19 19 18 17 13 17 22 21 25 26 29 32 33 32 34 35 36 36 37 37 36
14 14 14 13 12 11 9 9 9 8 9 9 10 11 15 15 16 19 20 20 20 18 21 14 17 24 23 26 31 36 33 31 30 30 29 30 33 36
15 15 15 15 16 14 12 10 10 9 8 8 9 7 5 7 10 11 17 15 11 13 22 18 16 18 20 21 27 29 29 28 28 28 28 29 31 32
15 16 20 20 18 18 16 13 13 12 10 8 7 9 9 9 9 11 11 11 4 4 8 19 20 14 4 12 17 18 20 23 28 26 27 26 24 24
18 16 16 20 21 22 21 16 16 11 11 11 11 11 12 12 12 11 11 11 9 8 9 3 5 6 5 3 4 6 4 9 10 12 15 16 17 21
20 19 17 18 15 20 22 23 21 20 14 14 12 11 11 10 10 12 12 11 12 12 9 8 5 6 5 2 2 3 7 8 11 16 16 16 17 20
14 14 15 13 12 16 20 19 18 21 18 16 17 14 12 10 10 9 10 11 12 13 14 18 16 16 18 14 8 13 10 10 7 12 17 21 23 23
18 12 11 12 14 12 14 14 17 17 19 17 16 14 12 12 13 12 11 10 11 11 13 15 18 19 19 20 19 16 19 13 17 16 18 23 28 26
12 12 11 10 11 12 11 12 14 14 16 19 19 17 17 16 15 13 12 11 12 11 10 11 13 14 15 15 14 15 16 15 19 21 20 23 30 31
6 6 6 7 9 13 14 15 14 19 21 20 20 17 17 17 16 14 12 12 11 11 11 11 12 11 11 13 17 15 12 13 11 13 15 15 19 30
5 6 8 10 11 13 14 15 16 15 13 16 17 18 18 16 15 13 12 11 12 13 13 11 12 15 10 10 7 17 12 9 10 12 13 15 13 15
4 4 6 7 8 9 8 9 10 12 12 14 12 12 12 12 13 15 13 14 12 12 13 12 13 14 13 9 10 4 11 10 10 11 12 11 11 15
3 3 2 3 4 4 5 5 6 6 7 9 9 10 9 10 12 12 13 16 15 13 13 12 11 9 11 13 7 12 11 10 11 9 7 9 9 10
5 4 4 5 5 4 4 4 4 5 7 8 8 8 9 9 12 14 14 15 14 12 10 7 6 6 10 13 13 13 15 16 16 14 13 12 7 4
8 6 7 7 6 6 6 6 6 7 8 9 11 12 11 12 15 15 13 12 14 12 10 9 10 10 13 15 17 18 15 14 16 18 19 21 20 19